Regional Weather Roundup
Issued by NWS Boston, MA

Home | Current Version | Previous Version | Text Only | Print | Product List | Glossary On
Versions: 1 2 3 4 5 6 7 8 9 10 11 12 13 14 15 16 17 18 19 20 21 22 23 24 25 26 27
000
ASUS41 KBOX 191010
RWRBOX

REGIONAL WEATHER ROUNDUP
NATIONAL WEATHER SERVICE TAUNTON MA
600 AM EDT SAT APR 19 2014

NOTE:  "FAIR" INDICATES FEW OR NO CLOUDS BELOW 12,000 FEET WITH NO
SIGNIFICANT WEATHER AND/OR OBSTRUCTIONS TO VISIBILITY.  THE FOLLOWING
OBSERVATION LOCATIONS DO NOT REPORT PRESENT WEATHER...PROVINCETOWN...
SMITHFIELD...BLOCK ISLAND...KEENE...AND OXFORD.

MAZALL-191100-
EASTERN MASSACHUSETTS

CITY           SKY/WX    TMP DP  RH WIND       PRES   REMARKS
BOSTON         PTCLDY    39  31  72 SW10      30.18S
BEVERLY        PTCLDY    36  32  85 CALM      30.16F
LAWRENCE       CLOUDY    35  31  85 SW5       30.18F WCI  31
BEDFORD        MOCLDY    34  33  96 SW3       30.16F
BLUE HILL        N/A     36  31  82 SW12      30.15S WCI  28
NORWOOD        PTCLDY    37  32  82 SW3       30.18F
MARSHFIELD       N/A    N/A N/A N/A MISG        N/A
PLYMOUTH       MOCLDY    37  33  85 SW6       30.19F
TAUNTON        PTCLDY    39  34  82 CALM      30.19S
NEW BEDFORD    PTCLDY    37  34  89 SW5       30.19F
$$

MAZALL-191100-
CAPE COD AND THE ISLANDS

CITY           SKY/WX    TMP DP  RH WIND       PRES   REMARKS
FALMOUTH       NOT AVBL
HYANNIS        MOCLDY    39  36  89 SW8       30.18F
CHATHAM        MOCLDY    37  35  92 SW3       30.19F
PROVINCETOWN     N/A     39  36  87 MISG      30.19F
NANTUCKET      MOCLDY    38  34  85 W6        30.20S
MARTHAS VNYRD  MOCLDY    37  34  89 SW3       30.20S
$$

MAZALL-191100-
CENTRAL AND WESTERN MASSACHUSETTS

CITY           SKY/WX    TMP DP  RH WIND       PRES   REMARKS
WORCESTER      PTCLDY    34  29  82 W12       30.16S WCI  25
FITCHBURG      PTCLDY    32  29  88 CALM      30.18S
ORANGE         CLEAR     27  25  92 CALM      30.18S FOG
SPRINGFIELD    CLEAR     32  32  98 S3        30.19S
WESTFIELD      PTCLDY    30  28  92 S3        30.20S
NORTH ADAMS    PTCLDY    33  28  81 CALM      30.19F
PITTSFIELD     CLEAR     32  29  88 CALM      30.17S
$$

RIZALL-191100-
RHODE ISLAND

CITY           SKY/WX    TMP DP  RH WIND       PRES   REMARKS
PROVIDENCE     MOCLDY    39  33  79 CALM      30.20F
NEWPORT        MOCLDY    39  34  82 VRB3      30.19F
BLOCK ISLAND   MOCLDY    39  36  87 W12       30.21F WCI  32
SMITHFIELD     PTCLDY    36  28  75 SW5       30.19S WCI  32
WESTERLY       MOCLDY    38  36  92 CALM      30.22F
$$

CTZALL-191100-
CONNECTICUT

CITY           SKY/WX    TMP DP  RH WIND       PRES   REMARKS
BRADLEY INTL   MOCLDY    37  32  82 CALM      30.20S
HARTFORD       PTCLDY    38  34  85 S5        30.21F
BRIDGEPORT     MOCLDY    39  36  89 CALM      30.23R
DANBURY        MOCLDY    33  31  92 SW3       30.22S
GROTON         MOCLDY    38  36  92 CALM      30.22S
NEW HAVEN      MOCLDY    41  36  82 CALM      30.22S
CHESTER        FAIR      36  36 100 CALM      30.21S FOG
MERIDEN        PTCLDY    34  32  92 CALM      30.22S
WILLIMANTIC    MOCLDY    33  30  88 NE3       30.21F
OXFORD         PTCLDY    34  27  75 N3        30.22S
$$

MEZ002-015-021-024-NHZ003-005-008-011-012-014-VTZ005-008-191100-
NORTHERN NEW ENGLAND

CITY           SKY/WX    TMP DP  RH WIND       PRES   REMARKS
PORTLAND ME    CLOUDY    34  31  88 SW3       30.15S
BANGOR ME      CLOUDY    32  28  85 S6        30.11F WCI  26
CONCORD NH     PTCLDY    28  26  92 CALM      30.16S
MANCHESTER NH  PTCLDY    32  28  85 CALM      30.15F
NASHUA NH      PTCLDY    31  30  96 CALM      30.18S
PORTSMOUTH NH  MOCLDY    31  31  99 W2        30.15F FOG
JAFFREY NH     CLEAR     29  26  89 CALM      30.15F
KEENE NH       CLEAR     28  23  80 CALM      30.18S
BURLINGTON VT  MOCLDY    45  32  60 W7        30.17R
MT. WASHINGTON FOG       19  19 100 NW39        N/A  VSB 0   WCI  -2
$$

NYZ052-076-191100-
EASTERN NEW YORK

CITY           SKY/WX    TMP DP  RH WIND       PRES   REMARKS
ALBANY         PTCLDY    36  29  75 W6        30.23R WCI  31
NEW YORK CITY  MOCLDY    43  34  70 SW7       30.23S
$$

ANZALL-191100-
MARINE OBSERVATIONS

STATION/POSITION TIME  TEMP    WIND        PRES    VSBY  WAVE
                       AIR SEA DIR/SP/G                  HT/PER
                 (UTC) (F)     (DEG/KT/KT) (MB)    (MI)  (FT/S)
BOSTON BUOY      0950   39 40  220/  8/ 10 1021.9R         6/10
BUZZARDS BAY     0900          250/ 12/ 13 1023.6F
NANTUCKET SOUND  0950   42 44  270/ 10/ 12 1022.3F         2/ 5
MASS BAY-STELLWA 0904   39 40  220/ 12/ 14 1020.4F  1 7/8  6/11
ISLE OF SHOALS   1000   37     250/  8/  9 1020.7F
S OF BLOCK IS    0925      41                N/A           4/11
$$

......................KEY.........................
  SKY/WX - SKY CONDITION/PRESENT WEATHER
  TMP    - TEMPERATURE IN FAHRENHEIT
  DWPT   - DEWPOINT IN FAHRENHEIT
  RH     - RELATIVE HUMIDITY IN PERCENT
  WIND   - DIRECTION AND SPEED IN MPH
  PRES   - MEAN SEA LEVEL PRESSURE IN INCHES OF HG
  WCI    - WIND CHILL INDEX
  VSB    - VISIBILITY IN MILES
  HX     - HEAT INDEX
  TC     - TEMPERATURE IN CELSIUS
  VRB    - VARIABLE WIND DIRECTION
  N/A    - NOT AVAILABLE



USA.gov is the U.S. government's official web portal to all federal, state and local government web resources and services.